Simultaneous Nadir Overpasses (SNOs) Predictions

Prediction of SNOs between GOES-16 and NPP Satellite Orbit:

Table of predicted SNOs for the next 14.0 days since TLE Epoch: 3/4/2023
Index Date Time (GOES-16) GOES-16 Lat,Lon NPP Lat,Lon Distance(km) Time Diff (sec)
1 03/04/2023 18:28:19 0.07, -75.19 -0.04, -75.63 50.87 80
2 03/05/2023 18:12:17 0.07, -75.20 0.99, -71.11 465.70 80
3 03/07/2023 06:34:07 -0.06, -75.21 0.21, -76.38 133.67 80
4 03/08/2023 06:12:45 -0.06, -75.22 -0.82, -71.86 383.20 80
5 03/09/2023 18:34:43 0.06, -75.23 -0.40, -77.16 220.46 80
6 03/10/2023 18:18:40 0.06, -75.25 0.64, -72.64 296.83 80
7 03/12/2023 06:40:31 -0.06, -75.27 0.54, -77.92 301.51 80
8 03/13/2023 06:19:08 -0.06, -75.28 -0.51, -73.40 215.74 80
9 03/14/2023 18:41:06 0.05, -75.29 -0.69, -78.70 387.77 80
10 03/15/2023 18:25:03 0.05, -75.31 0.31, -74.17 129.70 80
11 03/17/2023 06:46:53 -0.04, -75.33 0.86, -79.44 467.98 80
